| time (UTC) | temp F | wind direction | speed MPH | gust MPH | rain 1hr in | rain 24hr in | rain mn in | humidity % | barometer mb |
| 20260904005541 | 88 | 98 | 3.0 | 12.0 | 0.00 | 0.00 | 0.00 | 85 | 1011.5 |
| 20260904005038 | 88 | 36 | 3.0 | 11.0 | 0.00 | 0.00 | 0.00 | 84 | 1011.5 |
| 20260904004559 | 89 | 0 | 2.0 | 11.0 | 0.00 | 0.00 | 0.00 | 84 | 1011.8 |
| 20260904004040 | 89 | 0 | 1.0 | 12.0 | 0.00 | 0.00 | 0.00 | 84 | 1011.4 |
| 20260904003540 | 89 | 277 | 2.0 | 12.0 | 0.00 | 0.00 | 0.00 | 84 | 1011.4 |
| 20260904003108 | 89 | 15 | 1.0 | 8.0 | 0.00 | 0.00 | 0.00 | 84 | 1011.4 |
| 20260904002541 | 89 | 18 | 1.0 | 14.0 | 0.00 | 0.00 | 0.00 | 84 | 1011.3 |
| 20260904002041 | 89 | 101 | 3.0 | 14.0 | 0.00 | 0.00 | 0.00 | 83 | 1011.3 |
| 20260904001601 | 89 | 345 | 1.0 | 12.0 | 0.00 | 0.00 | 0.00 | 83 | 1011.4 |
| 20260904001040 | 89 | 269 | 2.0 | 9.0 | 0.00 | 0.00 | 0.00 | 83 | 1011.5 |
| 20260904000540 | 90 | 312 | 1.0 | 12.0 | 0.00 | 0.00 | 0.00 | 83 | 1011.6 |
| 20260904000104 | 90 | 342 | 3.0 | 12.0 | 0.00 | 0.00 | 0.00 | 83 | 1011.5 |
| 20260903235542 | 90 | 15 | 5.0 | 12.0 | 0.00 | 0.00 | 0.00 | 83 | 1011.4 |
| 20260903235040 | 91 | 304 | 3.0 | 10.0 | 0.00 | 0.00 | 0.00 | 82 | 1011.3 |
| 20260903234604 | 91 | 319 | 2.0 | 10.0 | 0.00 | 0.00 | 0.00 | 82 | 1011.2 |
| 20260903234041 | 91 | 0 | 2.0 | 9.0 | 0.00 | 0.00 | 0.00 | 82 | 1011.1 |
| 20260903233546 | 91 | 74 | 1.0 | 10.0 | 0.00 | 0.00 | 0.00 | 82 | 1011.0 |
| 20260903233105 | 91 | 360 | 5.0 | 10.0 | 0.00 | 0.00 | 0.00 | 82 | 1010.9 |
| 20260903232540 | 91 | 227 | 4.0 | 13.0 | 0.00 | 0.00 | 0.00 | 82 | 1010.7 |
| 20260903232040 | 91 | 290 | 2.0 | 13.0 | 0.00 | 0.00 | 0.00 | 82 | 1010.6 |
| 20260903231608 | 92 | 322 | 6.0 | 13.0 | 0.00 | 0.00 | 0.00 | 82 | 1010.6 |
| 20260903231039 | 92 | 44 | 2.0 | 11.0 | 0.00 | 0.00 | 0.00 | 82 | 1010.6 |
| 20260903230542 | 92 | 28 | 4.0 | 14.0 | 0.00 | 0.00 | 0.00 | 82 | 1010.7 |
| 20260903230100 | 93 | 48 | 3.0 | 15.0 | 0.00 | 0.00 | 0.00 | 81 | 1010.6 |
| 20260903225544 | 93 | 314 | 4.0 | 15.0 | 0.00 | 0.00 | 0.00 | 81 | 1010.7 |
| 20260903225037 | 94 | 5 | 3.0 | 11.0 | 0.00 | 0.00 | 0.00 | 80 | 1010.8 |
| 20260903224604 | 94 | 58 | 2.0 | 11.0 | 0.00 | 0.00 | 0.00 | 80 | 1010.8 |
| 20260903224042 | 94 | 340 | 2.0 | 10.0 | 0.00 | 0.00 | 0.00 | 79 | 1010.7 |
| 20260903223540 | 95 | 50 | 2.0 | 10.0 | 0.00 | 0.00 | 0.00 | 79 | 1010.7 |
| 20260903223103 | 95 | 13 | 4.0 | 10.0 | 0.00 | 0.00 | 0.00 | 78 | 1010.7 |
| 20260903222540 | 96 | 33 | 2.0 | 9.0 | 0.00 | 0.00 | 0.00 | 77 | 1010.7 |
| 20260903222040 | 96 | 35 | 3.0 | 11.0 | 0.00 | 0.00 | 0.00 | 77 | 1010.7 |
| 20260903221604 | 96 | 306 | 1.0 | 11.0 | 0.00 | 0.00 | 0.00 | 76 | 1010.6 |
| 20260903221039 | 96 | 53 | 5.0 | 11.0 | 0.00 | 0.00 | 0.00 | 77 | 1010.5 |
| 20260903220537 | 96 | 306 | 4.0 | 11.0 | 0.00 | 0.00 | 0.00 | 76 | 1010.4 |
| 20260903220057 | 97 | 49 | 4.0 | 11.0 | 0.00 | 0.00 | 0.00 | 75 | 1010.4 |
| 20260903215541 | 97 | 344 | 2.0 | 11.0 | 0.00 | 0.00 | 0.00 | 75 | 1010.4 |
| 20260903215037 | 97 | 352 | 3.0 | 12.0 | 0.00 | 0.00 | 0.00 | 75 | 1010.3 |
| 20260903214603 | 97 | 30 | 2.0 | 13.0 | 0.00 | 0.00 | 0.00 | 75 | 1010.3 |
| 20260903214040 | 97 | 306 | 5.0 | 14.0 | 0.00 | 0.00 | 0.00 | 74 | 1010.4 |
| 20260903213540 | 96 | 335 | 3.0 | 14.0 | 0.00 | 0.00 | 0.00 | 75 | 1010.3 |
| 20260903213104 | 97 | 15 | 7.0 | 14.0 | 0.00 | 0.00 | 0.00 | 73 | 1010.3 |
| 20260903212540 | 98 | 72 | 8.0 | 15.0 | 0.00 | 0.00 | 0.00 | 71 | 1010.4 |
| 20260903212040 | 98 | 39 | 7.0 | 15.0 | 0.00 | 0.00 | 0.00 | 68 | 1010.6 |
| 20260903211559 | 99 | 72 | 5.0 | 13.0 | 0.00 | 0.00 | 0.00 | 67 | 1010.6 |
| 20260903211039 | 99 | 70 | 6.0 | 12.0 | 0.00 | 0.00 | 0.00 | 64 | 1010.6 |
| 20260903210541 | 99 | 33 | 4.0 | 12.0 | 0.00 | 0.00 | 0.00 | 66 | 1010.7 |
| 20260903210114 | 98 | 73 | 5.0 | 13.0 | 0.00 | 0.00 | 0.00 | 66 | 1010.8 |
| 20260903205540 | 98 | 84 | 6.0 | 13.0 | 0.00 | 0.00 | 0.00 | 66 | 1010.9 |
| 20260903205040 | 98 | 51 | 8.0 | 14.0 | 0.00 | 0.00 | 0.00 | 64 | 1011.1 |
| 20260903204617 | 98 | 124 | 8.0 | 14.0 | 0.00 | 0.00 | 0.00 | 66 | 1011.1 |
| 20260903204040 | 98 | 112 | 6.0 | 13.0 | 0.00 | 0.00 | 0.00 | 66 | 1011.1 |
| 20260903203540 | 98 | 94 | 5.0 | 12.0 | 0.00 | 0.00 | 0.00 | 67 | 1011.2 |
| 20260903203100 | 98 | 136 | 6.0 | 12.0 | 0.00 | 0.00 | 0.00 | 67 | 1011.3 |
| 20260903202540 | 98 | 78 | 7.0 | 12.0 | 0.00 | 0.00 | 0.00 | 66 | 1011.4 |
| 20260903202038 | 98 | 53 | 4.0 | 13.0 | 0.00 | 0.00 | 0.00 | 67 | 1011.4 |
| 20260903201600 | 97 | 39 | 4.0 | 13.0 | 0.00 | 0.00 | 0.00 | 67 | 1011.5 |
| 20260903201039 | 98 | 104 | 8.0 | 13.0 | 0.00 | 0.00 | 0.00 | 68 | 1011.6 |
| 20260903200539 | 98 | 96 | 2.0 | 12.0 | 0.00 | 0.00 | 0.00 | 68 | 1011.8 |
| 20260903195536 | 98 | 82 | 3.0 | 10.0 | 0.00 | 0.00 | 0.00 | 67 | 1011.9 |
| 20260903195040 | 97 | 74 | 5.0 | 10.0 | 0.00 | 0.00 | 0.00 | 67 | 1012.1 |
| 20260903194556 | 97 | 59 | 5.0 | 10.0 | 0.00 | 0.00 | 0.00 | 67 | 1012.1 |
| 20260903194041 | 97 | 76 | 4.0 | 11.0 | 0.00 | 0.00 | 0.00 | 67 | 1012.1 |
| 20260903193542 | 97 | 197 | 2.0 | 11.0 | 0.00 | 0.00 | 0.00 | 68 | 1012.2 |
| 20260903193104 | 97 | 114 | 3.0 | 10.0 | 0.00 | 0.00 | 0.00 | 67 | 1012.4 |
| 20260903192537 | 97 | 122 | 5.0 | 10.0 | 0.00 | 0.00 | 0.00 | 67 | 1012.4 |
| 20260903192042 | 97 | 116 | 5.0 | 11.0 | 0.00 | 0.00 | 0.00 | 67 | 1012.4 |
| 20260903191559 | 96 | 74 | 3.0 | 11.0 | 0.00 | 0.00 | 0.00 | 69 | 1012.5 |
| 20260903191040 | 96 | 112 | 3.0 | 11.0 | 0.00 | 0.00 | 0.00 | 69 | 1012.5 |
| 20260903190539 | 96 | 112 | 6.0 | 11.0 | 0.00 | 0.00 | 0.00 | 69 | 1012.7 |
| 20260903190057 | 96 | 123 | 4.0 | 11.0 | 0.00 | 0.00 | 0.00 | 70 | 1012.9 |
| 20260903185540 | 95 | 105 | 4.0 | 10.0 | 0.00 | 0.00 | 0.00 | 70 | 1013.0 |
| 20260903185040 | 96 | 147 | 3.0 | 9.0 | 0.00 | 0.00 | 0.00 | 70 | 1013.1 |
| 20260903184608 | 97 | 110 | 2.0 | 10.0 | 0.00 | 0.00 | 0.00 | 69 | 1013.1 |
| 20260903184040 | 96 | 162 | 4.0 | 10.0 | 0.00 | 0.00 | 0.00 | 70 | 1013.3 |
| 20260903183539 | 96 | 119 | 3.0 | 10.0 | 0.00 | 0.00 | 0.00 | 70 | 1013.1 |
| 20260903183106 | 95 | 118 | 2.0 | 11.0 | 0.00 | 0.00 | 0.00 | 70 | 1013.4 |
| 20260903182537 | 96 | 125 | 6.0 | 11.0 | 0.00 | 0.00 | 0.00 | 70 | 1013.5 |
| 20260903182039 | 96 | 119 | 4.0 | 10.0 | 0.00 | 0.00 | 0.00 | 70 | 1013.6 |
| 20260903181604 | 95 | 50 | 3.0 | 10.0 | 0.00 | 0.00 | 0.00 | 71 | 1013.6 |
| 20260903181040 | 95 | 78 | 2.0 | 10.0 | 0.00 | 0.00 | 0.00 | 71 | 1013.7 |
| 20260903180540 | 94 | 0 | 4.0 | 10.0 | 0.00 | 0.00 | 0.00 | 71 | 1013.8 |
| 20260903175540 | 95 | 72 | 4.0 | 10.0 | 0.00 | 0.00 | 0.00 | 72 | 1013.8 |
| 20260903175041 | 94 | 122 | 1.0 | 7.0 | 0.00 | 0.00 | 0.00 | 73 | 1013.9 |
| 20260903174604 | 95 | 11 | 2.0 | 8.0 | 0.00 | 0.00 | 0.00 | 73 | 1013.9 |
| 20260903174043 | 94 | 68 | 4.0 | 8.0 | 0.00 | 0.00 | 0.00 | 73 | 1014.0 |
| 20260903173540 | 93 | 157 | 3.0 | 9.0 | 0.00 | 0.00 | 0.00 | 74 | 1014.1 |
| 20260903173105 | 94 | 111 | 2.0 | 9.0 | 0.00 | 0.00 | 0.00 | 74 | 1014.1 |
| 20260903172540 | 94 | 127 | 4.0 | 10.0 | 0.00 | 0.00 | 0.00 | 74 | 1014.2 |
| 20260903172044 | 93 | 62 | 1.0 | 10.0 | 0.00 | 0.00 | 0.00 | 76 | 1014.2 |
| 20260903171602 | 93 | 127 | 4.0 | 10.0 | 0.00 | 0.00 | 0.00 | 75 | 1014.2 |
| 20260903171044 | 94 | 88 | 4.0 | 8.0 | 0.00 | 0.00 | 0.00 | 75 | 1014.1 |
| 20260903170541 | 93 | 107 | 3.0 | 9.0 | 0.00 | 0.00 | 0.00 | 75 | 1014.3 |
| 20260903170100 | 93 | 101 | 3.0 | 9.0 | 0.00 | 0.00 | 0.00 | 75 | 1014.3 |
| 20260903165541 | 92 | 105 | 0.0 | 6.0 | 0.00 | 0.00 | 0.00 | 77 | 1014.3 |
| 20260903165039 | 93 | 36 | 1.0 | 7.0 | 0.00 | 0.00 | 0.00 | 76 | 1014.3 |
| 20260903164606 | 92 | 85 | 1.0 | 8.0 | 0.00 | 0.00 | 0.00 | 75 | 1014.4 |
| 20260903164041 | 92 | 98 | 1.0 | 8.0 | 0.00 | 0.00 | 0.00 | 74 | 1014.5 |
| 20260903163542 | 91 | 184 | 4.0 | 8.0 | 0.00 | 0.00 | 0.00 | 74 | 1014.5 |
| 20260903163055 | 91 | 98 | 3.0 | 7.0 | 0.00 | 0.00 | 0.00 | 75 | 1014.5 |
| 20260903162541 | 91 | 140 | 1.0 | 5.0 | 0.00 | 0.00 | 0.00 | 76 | 1014.6 |
| 20260903162040 | 90 | 182 | 0.0 | 7.0 | 0.00 | 0.00 | 0.00 | 76 | 1014.6 |
| 20260903161604 | 91 | 175 | 3.0 | 7.0 | 0.00 | 0.00 | 0.00 | 76 | 1014.6 |
| 20260903161042 | 90 | 78 | 1.0 | 7.0 | 0.00 | 0.00 | 0.00 | 77 | 1014.5 |
| 20260903160541 | 89 | 151 | 1.0 | 7.0 | 0.00 | 0.00 | 0.00 | 77 | 1014.5 |
| 20260903160108 | 90 | 93 | 1.0 | 7.0 | 0.00 | 0.00 | 0.00 | 77 | 1014.5 |
| 20260903155542 | 89 | 112 | 2.0 | 7.0 | 0.00 | 0.00 | 0.00 | 77 | 1014.5 |
| 20260903155041 | 88 | 115 | 2.0 | 7.0 | 0.00 | 0.00 | 0.00 | 79 | 1014.7 |
| 20260903154605 | 88 | 144 | 1.0 | 6.0 | 0.00 | 0.00 | 0.00 | 79 | 1014.7 |
| 20260903154041 | 89 | 121 | 2.0 | 6.0 | 0.00 | 0.00 | 0.00 | 78 | 1014.7 |
| 20260903153541 | 89 | 137 | 2.0 | 6.0 | 0.00 | 0.00 | 0.00 | 79 | 1014.6 |
| 20260903153111 | 89 | 348 | 2.0 | 6.0 | 0.00 | 0.00 | 0.00 | 79 | 1014.6 |
| 20260903152542 | 88 | 0 | 1.0 | 4.0 | 0.00 | 0.00 | 0.00 | 79 | 1014.6 |
| 20260903152041 | 87 | 221 | 0.0 | 3.0 | 0.00 | 0.00 | 0.00 | 80 | 1014.6 |
| 20260903151604 | 86 | 302 | 0.0 | 7.0 | 0.00 | 0.00 | 0.00 | 81 | 1014.5 |
| 20260903151041 | 87 | 0 | 1.0 | 7.0 | 0.00 | 0.00 | 0.00 | 80 | 1014.6 |
| 20260903150541 | 87 | 91 | 0.0 | 5.0 | 0.00 | 0.00 | 0.00 | 81 | 1014.6 |
| 20260903150113 | 86 | 64 | 2.0 | 6.0 | 0.00 | 0.00 | 0.00 | 81 | 1014.5 |
| 20260903145538 | 86 | 0 | 0.0 | 6.0 | 0.00 | 0.00 | 0.00 | 81 | 1014.6 |
| 20260903145040 | 86 | 108 | 1.0 | 4.0 | 0.00 | 0.00 | 0.00 | 80 | 1014.6 |
| 20260903144606 | 86 | 0 | 1.0 | 4.0 | 0.00 | 0.00 | 0.00 | 81 | 1014.5 |
| 20260903144038 | 85 | 44 | 0.0 | 4.0 | 0.00 | 0.00 | 0.00 | 81 | 1014.5 |
| 20260903143542 | 85 | 0 | 1.0 | 4.0 | 0.00 | 0.00 | 0.00 | 81 | 1014.5 |
| 20260903143110 | 85 | 184 | 0.0 | 4.0 | 0.00 | 0.00 | 0.00 | 81 | 1014.5 |
| 20260903142539 | 85 | 109 | 0.0 | 3.0 | 0.00 | 0.00 | 0.00 | 81 | 1014.5 |
| 20260903142039 | 84 | 159 | 1.0 | 3.0 | 0.00 | 0.00 | 0.00 | 82 | 1014.5 |
| 20260903141557 | 85 | 105 | 0.0 | 6.0 | 0.00 | 0.00 | 0.00 | 82 | 1014.6 |
| 20260903141041 | 84 | 0 | 0.0 | 6.0 | 0.00 | 0.00 | 0.00 | 83 | 1014.6 |
| 20260903140540 | 83 | 184 | 0.0 | 6.0 | 0.00 | 0.00 | 0.00 | 84 | 1014.6 |
| 20260903140111 | 83 | 184 | 2.0 | 6.0 | 0.00 | 0.00 | 0.00 | 84 | 1014.7 |
| 20260903135540 | 82 | 173 | 2.0 | 5.0 | 0.00 | 0.00 | 0.00 | 85 | 1014.6 |
| 20260903135040 | 82 | 128 | 2.0 | 4.0 | 0.00 | 0.00 | 0.00 | 86 | 1014.6 |
| 20260903134557 | 82 | 98 | 2.0 | 4.0 | 0.00 | 0.00 | 0.00 | 85 | 1014.7 |
| 20260903134040 | 82 | 56 | 1.0 | 6.0 | 0.00 | 0.00 | 0.00 | 85 | 1014.6 |
| 20260903133539 | 82 | 69 | 0.0 | 7.0 | 0.00 | 0.00 | 0.00 | 85 | 1014.5 |
| 20260903133108 | 82 | 115 | 3.0 | 7.0 | 0.00 | 0.00 | 0.00 | 84 | 1014.5 |
| 20260903132541 | 82 | 0 | 1.0 | 4.0 | 0.00 | 0.00 | 0.00 | 85 | 1014.4 |
| 20260903132042 | 82 | 144 | 2.0 | 4.0 | 0.00 | 0.00 | 0.00 | 85 | 1014.4 |
| 20260903131601 | 81 | 103 | 1.0 | 6.0 | 0.00 | 0.00 | 0.00 | 86 | 1014.3 |
| 20260903131040 | 81 | 109 | 2.0 | 6.0 | 0.00 | 0.00 | 0.00 | 86 | 1014.3 |
| 20260903130539 | 81 | 159 | 0.0 | 4.0 | 0.00 | 0.00 | 0.00 | 87 | 1014.2 |
| 20260903130058 | 80 | 90 | 1.0 | 4.0 | 0.00 | 0.00 | 0.00 | 88 | 1014.3 |
| 20260903125538 | 80 | 0 | 2.0 | 4.0 | 0.00 | 0.00 | 0.00 | 88 | 1014.1 |
| 20260903125040 | 80 | 111 | 2.0 | 4.0 | 0.00 | 0.00 | 0.00 | 89 | 1014.2 |
| 20260903124612 | 80 | 0 | 1.0 | 4.0 | 0.00 | 0.00 | 0.00 | 90 | 1014.1 |
| 20260903124042 | 80 | 101 | 0.0 | 3.0 | 0.00 | 0.00 | 0.00 | 90 | 1014.0 |
| 20260903123544 | 80 | 115 | 0.0 | 4.0 | 0.00 | 0.00 | 0.00 | 90 | 1014.0 |
| 20260903123059 | 80 | 0 | 2.0 | 5.0 | 0.00 | 0.00 | 0.00 | 90 | 1014.0 |
| 20260903122538 | 80 | 141 | 1.0 | 5.0 | 0.00 | 0.00 | 0.00 | 90 | 1014.0 |
| 20260903122040 | 80 | 0 | 0.0 | 4.0 | 0.00 | 0.00 | 0.00 | 90 | 1013.8 |
| 20260903121558 | 80 | 120 | 0.0 | 5.0 | 0.00 | 0.00 | 0.00 | 90 | 1013.7 |
| 20260903121039 | 80 | 0 | 1.0 | 5.0 | 0.00 | 0.00 | 0.00 | 90 | 1013.8 |
| 20260903120540 | 80 | 0 | 1.0 | 4.0 | 0.00 | 0.00 | 0.00 | 90 | 1013.7 |
| 20260903120104 | 80 | 0 | 1.0 | 5.0 | 0.00 | 0.00 | 0.00 | 90 | 1013.9 |
| 20260903115542 | 80 | 165 | 2.0 | 5.0 | 0.00 | 0.00 | 0.00 | 90 | 1013.9 |
| 20260903115042 | 80 | 150 | 1.0 | 5.0 | 0.00 | 0.00 | 0.00 | 89 | 1013.8 |
| 20260903114605 | 81 | 171 | 1.0 | 6.0 | 0.00 | 0.00 | 0.00 | 88 | 1013.7 |
| 20260903114040 | 81 | 119 | 3.0 | 6.0 | 0.00 | 0.00 | 0.00 | 87 | 1013.6 |
| 20260903113539 | 81 | 101 | 2.0 | 6.0 | 0.00 | 0.00 | 0.00 | 87 | 1013.6 |
| 20260903113056 | 81 | 71 | 2.0 | 8.0 | 0.00 | 0.00 | 0.00 | 87 | 1013.6 |
| 20260903112541 | 81 | 79 | 3.0 | 8.0 | 0.00 | 0.00 | 0.00 | 87 | 1013.5 |
| 20260903112040 | 81 | 71 | 2.0 | 4.0 | 0.00 | 0.00 | 0.00 | 88 | 1013.5 |
| 20260903111557 | 80 | 0 | 1.0 | 3.0 | 0.00 | 0.00 | 0.00 | 89 | 1013.4 |
| 20260903111041 | 80 | 0 | 0.0 | 2.0 | 0.00 | 0.00 | 0.00 | 89 | 1013.4 |
| 20260903110540 | 80 | 82 | 0.0 | 4.0 | 0.00 | 0.00 | 0.00 | 89 | 1013.5 |
| 20260903105536 | 80 | 9 | 1.0 | 5.0 | 0.00 | 0.00 | 0.00 | 89 | 1013.4 |
| 20260903105042 | 80 | 58 | 1.0 | 5.0 | 0.00 | 0.00 | 0.00 | 89 | 1013.4 |
| 20260903104558 | 80 | 0 | 1.0 | 5.0 | 0.00 | 0.00 | 0.00 | 90 | 1013.4 |
| 20260903104042 | 80 | 0 | 0.0 | 5.0 | 0.00 | 0.00 | 0.00 | 90 | 1013.4 |
| 20260903103543 | 80 | 43 | 1.0 | 5.0 | 0.00 | 0.00 | 0.00 | 90 | 1013.4 |
| 20260903103101 | 80 | 0 | 1.0 | 5.0 | 0.00 | 0.00 | 0.00 | 90 | 1013.5 |
| 20260903102540 | 81 | 0 | 1.0 | 5.0 | 0.00 | 0.00 | 0.00 | 90 | 1013.4 |
| 20260903102043 | 81 | 65 | 1.0 | 6.0 | 0.00 | 0.00 | 0.00 | 90 | 1013.5 |
| 20260903101604 | 81 | 101 | 2.0 | 7.0 | 0.00 | 0.00 | 0.00 | 90 | 1013.5 |
| 20260903101037 | 81 | 70 | 2.0 | 7.0 | 0.00 | 0.00 | 0.00 | 90 | 1013.5 |
| 20260903100540 | 81 | 63 | 2.0 | 7.0 | 0.00 | 0.00 | 0.00 | 90 | 1013.5 |
| 20260903100105 | 81 | 90 | 3.0 | 7.0 | 0.00 | 0.00 | 0.00 | 91 | 1013.5 |
| 20260903095536 | 81 | 101 | 1.0 | 4.0 | 0.00 | 0.00 | 0.00 | 91 | 1013.5 |
| 20260903095036 | 81 | 107 | 2.0 | 5.0 | 0.00 | 0.00 | 0.00 | 92 | 1013.6 |
| 20260903094605 | 81 | 0 | 2.0 | 6.0 | 0.00 | 0.00 | 0.00 | 92 | 1013.5 |
| 20260903094040 | 81 | 22 | 1.0 | 6.0 | 0.00 | 0.00 | 0.00 | 92 | 1013.5 |
| 20260903093541 | 81 | 71 | 1.0 | 7.0 | 0.00 | 0.00 | 0.00 | 92 | 1013.5 |
| 20260903093129 | 81 | 127 | 2.0 | 7.0 | 0.00 | 0.00 | 0.00 | 92 | 1013.6 |
| 20260903092539 | 81 | 108 | 2.0 | 8.0 | 0.00 | 0.00 | 0.00 | 93 | 1013.6 |
| 20260903092039 | 81 | 69 | 3.0 | 8.0 | 0.00 | 0.00 | 0.00 | 93 | 1013.6 |
| 20260903091556 | 81 | 76 | 3.0 | 7.0 | 0.00 | 0.00 | 0.00 | 93 | 1013.6 |
| 20260903091041 | 81 | 86 | 3.0 | 7.0 | 0.00 | 0.00 | 0.00 | 93 | 1013.8 |
| 20260903090536 | 81 | 61 | 2.0 | 6.0 | 0.00 | 0.00 | 0.00 | 93 | 1013.7 |
| 20260903090107 | 81 | 100 | 2.0 | 6.0 | 0.00 | 0.00 | 0.00 | 93 | 1013.7 |
| 20260903085539 | 81 | 85 | 2.0 | 7.0 | 0.00 | 0.00 | 0.00 | 94 | 1013.8 |
| 20260903085040 | 81 | 90 | 3.0 | 8.0 | 0.00 | 0.00 | 0.00 | 94 | 1014.0 |
| 20260903084559 | 81 | 106 | 2.0 | 11.0 | 0.00 | 0.00 | 0.00 | 94 | 1013.9 |
| 20260903084040 | 81 | 115 | 3.0 | 11.0 | 0.00 | 0.00 | 0.00 | 95 | 1014.0 |
| 20260903083540 | 81 | 78 | 4.0 | 10.0 | 0.00 | 0.00 | 0.00 | 95 | 1014.0 |
| 20260903083341 | 81 | 112 | 5.0 | 10.0 | 0.00 | 0.00 | 0.00 | 95 | 1014.1 |
| 20260903082537 | 81 | 67 | 4.0 | 9.0 | 0.00 | 0.00 | 0.00 | 95 | 1014.2 |
| 20260903082039 | 81 | 65 | 4.0 | 9.0 | 0.00 | 0.00 | 0.00 | 95 | 1014.2 |
| 20260903081556 | 81 | 64 | 3.0 | 9.0 | 0.00 | 0.00 | 0.00 | 95 | 1014.2 |
| 20260903081040 | 81 | 84 | 3.0 | 8.0 | 0.00 | 0.00 | 0.00 | 95 | 1014.2 |
| 20260903080540 | 81 | 91 | 2.0 | 8.0 | 0.00 | 0.00 | 0.00 | 95 | 1014.3 |
| 20260903080117 | 81 | 58 | 3.0 | 8.0 | 0.00 | 0.00 | 0.00 | 95 | 1014.3 |
| 20260903075536 | 81 | 103 | 2.0 | 8.0 | 0.00 | 0.00 | 0.00 | 96 | 1014.4 |
| 20260903075036 | 81 | 111 | 4.0 | 8.0 | 0.00 | 0.00 | 0.00 | 96 | 1014.4 |
| 20260903074621 | 81 | 103 | 4.0 | 8.0 | 0.00 | 0.00 | 0.00 | 96 | 1014.5 |
| 20260903074038 | 81 | 103 | 2.0 | 9.0 | 0.00 | 0.00 | 0.00 | 96 | 1014.6 |
| 20260903073540 | 81 | 92 | 3.0 | 9.0 | 0.00 | 0.00 | 0.00 | 96 | 1014.6 |
| 20260903073108 | 81 | 105 | 4.0 | 9.0 | 0.00 | 0.00 | 0.00 | 96 | 1014.6 |
| 20260903072539 | 82 | 107 | 3.0 | 7.0 | 0.00 | 0.00 | 0.00 | 96 | 1014.7 |
| 20260903072039 | 82 | 139 | 2.0 | 7.0 | 0.00 | 0.00 | 0.00 | 96 | 1014.6 |
| 20260903071609 | 82 | 101 | 2.0 | 7.0 | 0.00 | 0.00 | 0.00 | 96 | 1014.6 |
| 20260903071039 | 81 | 89 | 2.0 | 6.0 | 0.00 | 0.00 | 0.00 | 96 | 1014.6 |
| 20260903070542 | 81 | 127 | 1.0 | 6.0 | 0.00 | 0.00 | 0.00 | 96 | 1014.4 |
| 20260903070115 | 82 | 0 | 0.0 | 6.0 | 0.00 | 0.00 | 0.00 | 96 | 1014.4 |
| 20260903065541 | 81 | 109 | 2.0 | 6.0 | 0.00 | 0.00 | 0.00 | 96 | 1014.5 |
| 20260903065042 | 82 | 99 | 3.0 | 6.0 | 0.00 | 0.00 | 0.00 | 96 | 1014.5 |
| 20260903064557 | 82 | 114 | 2.0 | 6.0 | 0.00 | 0.00 | 0.00 | 95 | 1014.5 |
| 20260903064041 | 82 | 0 | 2.0 | 6.0 | 0.00 | 0.00 | 0.00 | 95 | 1014.6 |
| 20260903063541 | 82 | 96 | 2.0 | 6.0 | 0.00 | 0.00 | 0.00 | 95 | 1014.7 |
| 20260903063100 | 82 | 0 | 0.0 | 6.0 | 0.00 | 0.00 | 0.00 | 95 | 1014.7 |
| 20260903062542 | 82 | 0 | 2.0 | 6.0 | 0.00 | 0.00 | 0.00 | 95 | 1014.7 |
| 20260903062042 | 82 | 71 | 1.0 | 4.0 | 0.00 | 0.00 | 0.00 | 95 | 1014.7 |
| 20260903061602 | 82 | 0 | 1.0 | 6.0 | 0.00 | 0.00 | 0.00 | 95 | 1015.0 |
| 20260903061041 | 82 | 74 | 2.0 | 9.0 | 0.00 | 0.00 | 0.00 | 95 | 1015.0 |
| 20260903060545 | 82 | 115 | 4.0 | 9.0 | 0.00 | 0.00 | 0.00 | 95 | 1015.1 |
| 20260903055542 | 82 | 94 | 4.0 | 8.0 | 0.00 | 0.00 | 0.00 | 95 | 1015.3 |
| 20260903055041 | 82 | 86 | 2.0 | 8.0 | 0.00 | 0.00 | 0.00 | 95 | 1015.4 |
| 20260903054602 | 82 | 115 | 4.0 | 8.0 | 0.00 | 0.00 | 0.00 | 94 | 1015.6 |
| 20260903054042 | 82 | 117 | 3.0 | 8.0 | 0.00 | 0.00 | 0.00 | 94 | 1015.5 |
| 20260903053541 | 82 | 119 | 3.0 | 8.0 | 0.00 | 0.00 | 0.00 | 94 | 1015.5 |
| 20260903053105 | 82 | 142 | 2.0 | 8.0 | 0.00 | 0.00 | 0.00 | 94 | 1015.4 |
| 20260903052541 | 82 | 150 | 1.0 | 7.0 | 0.00 | 0.00 | 0.00 | 94 | 1015.2 |
| 20260903052042 | 82 | 0 | 2.0 | 7.0 | 0.00 | 0.00 | 0.00 | 94 | 1015.3 |
| 20260903051606 | 82 | 105 | 2.0 | 6.0 | 0.00 | 0.00 | 0.00 | 94 | 1015.4 |
| 20260903051040 | 83 | 157 | 0.0 | 8.0 | 0.00 | 0.00 | 0.00 | 94 | 1015.3 |
| 20260903050542 | 82 | 127 | 1.0 | 8.0 | 0.00 | 0.00 | 0.00 | 94 | 1015.2 |
| 20260903050105 | 82 | 103 | 5.0 | 8.0 | 0.00 | 0.00 | 0.00 | 94 | 1015.3 |
| 20260903045541 | 83 | 107 | 3.0 | 8.0 | 0.00 | 0.00 | 0.00 | 94 | 1015.3 |
| 20260903045042 | 83 | 114 | 4.0 | 9.0 | 0.00 | 0.00 | 0.00 | 94 | 1015.4 |
| 20260903044605 | 83 | 64 | 4.0 | 10.0 | 0.00 | 0.00 | 0.00 | 93 | 1015.3 |
| 20260903044041 | 83 | 94 | 5.0 | 11.0 | 0.00 | 0.00 | 0.00 | 93 | 1015.2 |
| 20260903043543 | 83 | 67 | 5.0 | 11.0 | 0.00 | 0.00 | 0.00 | 93 | 1015.2 |
| 20260903043103 | 83 | 78 | 3.0 | 10.0 | 0.00 | 0.00 | 0.00 | 92 | 1015.2 |
| 20260903042543 | 83 | 105 | 4.0 | 10.0 | 0.00 | 0.00 | 0.00 | 92 | 1015.0 |
| 20260903042041 | 83 | 106 | 1.0 | 9.0 | 0.00 | 0.00 | 0.00 | 92 | 1015.1 |
| 20260903041601 | 83 | 88 | 4.0 | 9.0 | 0.00 | 0.00 | 0.00 | 92 | 1015.1 |
| 20260903041044 | 84 | 24 | 4.0 | 9.0 | 0.00 | 0.00 | 0.00 | 92 | 1015.1 |
| 20260903040543 | 84 | 63 | 2.0 | 10.0 | 0.00 | 0.00 | 0.00 | 91 | 1015.0 |
| 20260903040109 | 84 | 63 | 4.0 | 10.0 | 0.00 | 0.00 | 0.00 | 91 | 1015.0 |
| 20260903035542 | 84 | 63 | 3.0 | 9.0 | 0.00 | 0.00 | 0.00 | 91 | 1015.1 |
| 20260903035041 | 84 | 91 | 3.0 | 10.0 | 0.00 | 0.00 | 0.00 | 91 | 1015.0 |
| 20260903034600 | 84 | 55 | 2.0 | 10.0 | 0.00 | 0.00 | 0.00 | 91 | 1015.0 |
| 20260903034038 | 84 | 5 | 4.0 | 12.0 | 0.00 | 0.00 | 0.00 | 90 | 1014.9 |
| 20260903033539 | 84 | 68 | 3.0 | 12.0 | 0.00 | 0.00 | 0.00 | 90 | 1014.9 |
| 20260903033124 | 84 | 56 | 3.0 | 9.0 | 0.00 | 0.00 | 0.00 | 90 | 1014.7 |
| 20260903032537 | 84 | 51 | 2.0 | 9.0 | 0.00 | 0.00 | 0.00 | 90 | 1014.7 |
| 20260903032039 | 84 | 82 | 3.0 | 11.0 | 0.00 | 0.00 | 0.00 | 90 | 1014.6 |
| 20260903031633 | 85 | 45 | 4.0 | 11.0 | 0.00 | 0.00 | 0.00 | 90 | 1014.6 |
| 20260903031037 | 85 | 80 | 5.0 | 14.0 | 0.00 | 0.00 | 0.00 | 90 | 1014.5 |
| 20260903030537 | 85 | 94 | 6.0 | 14.0 | 0.00 | 0.00 | 0.00 | 89 | 1014.4 |
| 20260903030100 | 85 | 13 | 3.0 | 11.0 | 0.00 | 0.00 | 0.00 | 89 | 1014.2 |
| 20260903025540 | 85 | 51 | 4.0 | 11.0 | 0.00 | 0.00 | 0.00 | 89 | 1014.1 |
| 20260903025036 | 85 | 12 | 5.0 | 11.0 | 0.00 | 0.00 | 0.00 | 89 | 1014.0 |
| 20260903024557 | 85 | 59 | 5.0 | 11.0 | 0.00 | 0.00 | 0.00 | 88 | 1014.0 |
| 20260903024040 | 86 | 53 | 5.0 | 12.0 | 0.00 | 0.00 | 0.00 | 88 | 1013.9 |
| 20260903023539 | 86 | 71 | 7.0 | 12.0 | 0.00 | 0.00 | 0.00 | 87 | 1014.0 |
| 20260903023104 | 86 | 46 | 4.0 | 11.0 | 0.00 | 0.00 | 0.00 | 87 | 1013.9 |
| 20260903022542 | 87 | 15 | 4.0 | 10.0 | 0.00 | 0.00 | 0.00 | 87 | 1014.0 |
| 20260903022036 | 87 | 63 | 4.0 | 10.0 | 0.00 | 0.00 | 0.00 | 87 | 1014.0 |
| 20260903021558 | 87 | 98 | 4.0 | 11.0 | 0.00 | 0.00 | 0.00 | 87 | 1013.9 |
| 20260903021040 | 87 | 36 | 3.0 | 13.0 | 0.00 | 0.00 | 0.00 | 87 | 1013.9 |
| 20260903020542 | 87 | 59 | 3.0 | 13.0 | 0.00 | 0.00 | 0.00 | 87 | 1013.7 |
| 20260903020059 | 87 | 49 | 2.0 | 10.0 | 0.00 | 0.00 | 0.00 | 87 | 1013.7 |
| 20260903015540 | 87 | 0 | 2.0 | 10.0 | 0.00 | 0.00 | 0.00 | 87 | 1013.7 |
| 20260903015043 | 88 | 243 | 2.0 | 10.0 | 0.00 | 0.00 | 0.00 | 87 | 1013.6 |
| 20260903014559 | 88 | 0 | 3.0 | 9.0 | 0.00 | 0.00 | 0.00 | 87 | 1013.6 |
| 20260903014040 | 88 | 40 | 1.0 | 9.0 | 0.00 | 0.00 | 0.00 | 87 | 1013.5 |
| 20260903013538 | 88 | 74 | 1.0 | 6.0 | 0.00 | 0.00 | 0.00 | 87 | 1013.5 |
| 20260903013057 | 88 | 53 | 1.0 | 8.0 | 0.00 | 0.00 | 0.00 | 87 | 1013.4 |
| 20260903012540 | 88 | 0 | 0.0 | 8.0 | 0.00 | 0.00 | 0.00 | 87 | 1013.4 |
| 20260903012039 | 88 | 338 | 1.0 | 8.0 | 0.00 | 0.00 | 0.00 | 86 | 1013.4 |
| 20260903011558 | 89 | 84 | 2.0 | 7.0 | 0.00 | 0.00 | 0.00 | 86 | 1013.3 |
| 20260903011039 | 89 | 0 | 0.0 | 6.0 | 0.00 | 0.00 | 0.00 | 86 | 1013.3 |
| 20260903010539 | 89 | 286 | 1.0 | 6.0 | 0.00 | 0.00 | 0.00 | 86 | 1013.3 |